Probability
0 0 0 0 0 0 0 0 0 0 0 0 0 0 0 0 0 0 0 0 0 0 0 0 0 0 0 0 0 0 0 0 0 0 0 0 0 0 0 0 0 0 0
0 0 0 0 0 0 0 0 0 0 0 0 0 0 0 0 0 0 0 0 0 0 0 0 0 0 0 0 0 0 0 0 0 0 0 0 0 0 0 0 0 0 0
0 0 0 0 0 0 0 0 0 0 0 0 0 0 0 0 0 0 0 0 0 0 0 0 0 0 0 0 0 0 0 0 0 0 0 0 0 0 0 0 0 0 0
0 0 0 0 0 0 0 0 0 0 0 0 0 0 0 0 0 0 0 0 0 0 0 0 0 0 0 0 0 0 0 0 0 0 0 0 0 0 0 0 0 0 0
0 0 0 0 0 0 0 0 0 0 0 0 0 0 0 0 0 0 0 0 0 0 0 0 0 0 0 0 0 0 0 0 0 0 0 0 0 0 0 0 0 0 0
0 0 0 0 0 0 0 0 0 0 0 0 0 0 0 0 0 0 0 0 0 0 0 0 0 0 0 0 0 0 0 0 0 0 0 0 0 0 0 0 0 0 0
0 0 0 0 0 0 0 0 0 0 0 0 0 0 0 0 0 0 0 0 0 0 0 0 0 0 0 0 0 0 0 0 0 0 0 0 0 0 0 0 0 0 0
0 0 0 0 0 0 0 0 0 0 0 0 0 0 0 0 0 0 0 0 0 0 0 0 0 0 0 0 0 0 0 0 0 0 0 0 0 0 0 0 0 0 0
0 0 0 0 0 0 0 0 0 0 0 0 0 0 0 0 0 0 0 0 0 0 0 0 0 0 0 0 0 0 0 0 0 0 0 0 0 0 0 0 0 0 0
1 1 1 0 0 0 0 0 0 0 0 0 0 0 0 0 0 0 0 0 0 0 0 0 0 0 0 0 0 0 0 0 0 0 0 0 0 0 0 0 0 0 0
2 2 1 0 0 0 0 0 0 0 0 0 0 0 0 0 0 0 0 0 0 0 0 0 0 0 0 0 0 0 0 0 0 0 0 0 0 0 0 0 0 0 0
2 2 1 0 0 0 0 0 0 0 0 0 0 0 0 0 0 0 0 0 0 0 0 0 0 0 0 0 0 0 0 0 0 0 0 0 0 0 0 0 0 0 0
1 1 0 0 0 0 0 0 0 0 0 0 0 0 0 0 0 0 0 0 0 0 0 0 0 0 0 0 0 0 0 0 0 0 0 0 0 0 0 0 0 0 0
0 0 0 0 0 0 0 0 0 0 0 0 0 0 0 0 0 0 0 0 0 0 0 0 0 0 0 0 0 0 0 0 0 0 0 0 0 0 0 0 0 0 0
0 0 0 0 0 0 0 0 0 0 0 0 0 0 0 0 0 0 0 0 0 0 0 0 0 0 0 0 0 0 0 0 0 0 0 0 0 0 0 0 0 0 0
0 0 0 0 0 0 0 0 0 0 0 0 0 0 0 0 0 0 0 0 0 0 0 0 0 0 0 0 0 0 0 0 0 0 0 0 0 0 0 0 0 0 0
0 0 0 0 0 0 0 0 0 0 0 0 0 0 0 0 0 0 0 0 0 0 0 0 0 0 0 0 0 0 0 0 0 0 0 0 0 0 0 0 0 0 0
0 0 0 0 0 0 0 0 0 0 0 0 0 0 0 0 0 0 0 0 0 0 0 0 0 0 0 0 0 0 0 0 0 0 0 0 0 0 0 0 0 0 0
0 0 0 0 0 0 0 0 0 0 0 0 0 0 0 0 0 0 0 0 0 0 0 0 0 0 0 0 0 0 0 0 0 0 0 0 0 0 0 0 0 0 0
0 0 0 0 0 0 0 0 0 0 0 0 0 0 0 0 0 0 0 0 0 0 0 0 0 0 0 0 0 0 0 0 0 0 0 0 0 0 0 0 0 0 0
0 0 0 0 0 0 0 0 0 0 0 0 0 0 0 0 0 0 0 0 0 0 0 0 0 0 0 0 0 0 0 0 0 0 0 0 0 0 0 0 0 0 0
0 0 0 0 0 0 0 0 0 0 0 0 0 0 0 0 0 0 0 0 0 0 0 0 0 0 0 0 0 0 0 0 0 0 0 0 0 0 0 0 0 0 0
0 0 0 0 0 0 0 0 0 0 0 0 0 0 0 0 0 0 0 0 0 0 0 0 0 0 0 0 0 0 0 0 0 0 0 0 0 0 0 0 0 0 0
0 0 0 0 0 0 0 0 0 0 0 0 0 0 0 0 0 0 0 0 0 0 0 0 0 0 0 0 0 0 0 0 0 0 0 0 0 0 0 0 0 0 0
0 0 0 0 0 0 0 0 0 0 0 0 0 0 0 0 0 0 0 0 0 0 0 0 0 0 0 0 0 0 0 0 0 0 0 0 0 0 0 0 0 0 0
0 0 0 0 0 0 0 0 0 0 0 0 0 0 0 0 0 0 0 0 0 0 0 0 0 0 0 0 0 0 0 0 0 0 0 0 0 0 0 0 0 0 0
Wind_Speed
6 5 5 4 4 5 5 4 4 4 4 4 4 4 4 4 4 5 4 5 6 5 4 5 5 4 4 4 3 3 3 2 2 2 2 3 4 4 4 4 4 4 4
6 6 6 5 5 5 4 4 4 4 4 4 4 4 4 3 4 4 5 5 5 5 4 5 4 4 5 4 3 4 3 2 2 1 3 3 4 4 4 4 5 5 3
7 6 6 5 5 5 4 4 4 5 4 4 5 5 4 3 3 3 4 4 4 4 3 4 3 4 4 3 4 3 2 3 2 2 2 2 2 3 4 4 5 4 5
7 7 7 6 6 5 5 5 5 5 5 4 4 4 4 4 3 3 4 4 4 4 3 3 3 3 3 3 3 3 3 3 3 2 2 2 3 3 3 3 4 4 4
8 8 7 6 5 5 5 5 5 5 5 5 5 4 4 3 3 4 5 5 4 4 3 3 3 4 5 4 3 2 3 2 2 2 2 2 3 3 3 2 3 4 4
9 8 7 6 6 6 6 5 5 5 5 5 5 5 4 3 5 7 6 5 4 4 3 3 3 4 5 7 7 6 4 3 2 1 1 1 2 2 2 2 2 3 4
9 8 8 7 7 6 7 6 6 5 5 5 5 5 4 3 7 8 8 5 4 3 3 2 2 3 4 3 5 7 6 6 3 2 1 1 2 2 2 2 2 1 3
9 9 8 8 7 7 7 6 5 4 5 5 4 4 4 3 6 8 9 5 4 2 2 2 2 1 1 2 3 3 3 4 3 1 1 2 2 2 2 2 2 2 4
10 10 9 9 9 8 7 6 5 5 4 4 4 5 4 3 5 7 8 4 3 2 1 1 2 1 1 4 3 2 4 4 4 4 4 4 5 4 2 1 2 2 3
12 11 9 9 10 9 8 6 4 5 5 5 4 3 4 3 4 7 8 4 3 1 1 1 1 1 1 3 2 1 2 3 4 5 6 7 5 5 5 0 1 1 2
10 9 9 9 9 8 6 5 5 5 5 4 4 3 3 3 4 6 7 3 3 2 1 0 1 1 1 1 1 1 2 2 2 3 3 4 4 3 3 2 2 2 2
10 10 9 9 8 7 7 5 5 6 6 4 4 2 1 1 3 4 6 5 5 3 2 2 2 2 2 2 1 2 3 3 1 2 3 3 3 3 3 3 3 3 4
11 10 9 8 6 7 8 7 5 5 5 4 4 3 2 1 2 4 5 5 5 3 2 3 2 2 2 2 4 4 3 1 1 2 2 3 3 3 3 3 4 3 3
11 10 9 9 7 6 6 6 6 6 5 5 5 4 3 2 2 2 2 2 3 2 1 2 2 2 1 2 3 3 2 1 1 2 3 3 3 3 2 2 3 3 3
11 10 9 8 8 7 6 5 6 6 7 8 6 6 5 5 6 8 5 3 3 3 2 1 1 1 2 2 2 2 2 2 1 2 2 3 3 3 3 3 2 2 2
10 9 7 7 6 6 5 3 3 4 7 9 9 8 6 7 7 9 8 7 7 5 3 1 2 2 2 3 3 3 2 2 3 2 2 2 3 3 4 3 2 2 3
11 9 7 7 7 6 6 6 4 2 3 6 9 10 9 8 9 9 8 7 6 6 3 2 3 3 3 3 3 3 3 3 3 2 3 3 3 3 3 3 3 3 4
9 10 9 7 7 7 7 6 6 6 4 3 4 7 9 9 9 9 8 5 2 2 3 3 4 4 3 3 3 3 3 3 2 2 3 3 3 3 3 4 4 4 5
8 7 7 6 6 6 6 5 5 5 4 3 2 2 6 6 6 6 7 4 4 4 4 4 4 4 4 4 3 3 3 3 3 3 3 3 3 3 3 4 4 7 6
6 10 9 6 6 5 5 5 5 5 4 4 4 4 3 3 2 3 4 4 4 5 5 5 4 4 4 4 3 3 3 3 3 3 3 3 3 3 4 5 5 5 5
5 7 10 7 6 6 6 6 6 5 5 5 5 5 8 5 5 5 5 5 5 6 5 4 4 4 4 3 3 3 4 3 4 4 4 4 3 4 4 4 5 5 6
5 5 5 6 5 5 5 5 5 5 5 5 3 3 8 5 4 4 4 5 5 5 4 4 4 4 4 4 4 4 4 4 4 4 4 4 4 4 4 4 5 5 6
5 5 4 4 4 6 5 4 4 5 4 4 4 3 3 4 4 4 4 4 4 4 3 3 4 3 3 3 4 4 4 5 4 4 4 4 4 4 4 5 6 7 7
5 5 5 4 4 4 4 4 4 4 4 4 4 4 4 4 4 4 4 3 3 3 3 3 4 5 5 4 3 4 4 4 4 4 5 5 5 5 5 5 6 8 8
4 4 4 4 4 4 4 4 4 4 3 3 3 3 3 3 3 3 3 3 3 3 4 4 3 4 5 6 5 5 6 7 6 4 4 4 5 6 6 7 7 8 8
4 4 4 4 3 3 4 3 3 3 3 3 3 3 3 3 3 3 3 3 3 3 4 3 4 5 5 5 6 7 7 8 8 7 4 4 5 5 6 6 8 8 9
Wind_Direction
161 152 143 146 142 134 129 135 137 129 123 122 116 104 92 80 77 79 77 74 74 62 58 66 57 52 53 41 47 56 59 86 99 320 325 337 1 359 351 352 1 4 355
161 150 151 150 141 134 135 139 135 127 125 125 121 109 102 92 82 85 89 86 85 79 67 66 55 60 53 43 47 50 48 58 96 29 340 347 355 350 351 357 1 1 350
156 152 151 151 149 147 145 139 132 128 122 119 115 115 112 106 94 91 97 92 90 91 90 86 75 74 59 44 49 48 40 42 54 71 350 338 338 351 357 354 356 349 351
157 155 158 163 160 153 143 135 131 128 125 123 120 122 121 111 102 100 100 95 89 83 85 92 89 93 89 67 56 46 50 49 44 48 14 349 341 338 5 356 348 343 340
158 162 169 165 152 142 138 134 128 125 128 128 119 111 107 107 113 116 112 108 98 83 69 68 76 87 83 78 77 68 67 61 51 46 22 4 347 350 345 330 335 324 322
163 168 164 156 150 147 143 135 127 123 121 117 120 119 112 108 120 122 120 112 107 100 86 60 61 60 60 61 63 67 72 80 81 66 24 352 308 305 310 327 337 353 327
166 165 162 157 155 155 147 137 136 135 126 122 125 121 116 117 123 120 118 116 111 109 109 93 70 59 60 54 45 43 37 38 58 137 148 262 271 277 297 322 322 308 278
167 167 165 158 156 152 146 147 146 137 134 133 134 131 121 122 121 120 118 105 99 102 117 125 115 78 47 75 62 33 14 5 359 60 178 245 256 261 239 247 262 288 289
174 174 170 163 158 157 158 159 152 141 138 140 142 139 131 131 127 125 118 103 93 82 67 97 116 122 51 83 80 41 5 344 346 359 348 333 328 331 338 14 353 0 322
182 176 169 165 164 166 167 160 152 147 148 143 140 147 147 150 140 132 126 115 106 90 38 24 64 89 75 87 97 84 352 315 331 340 345 345 341 334 337 265 209 262 292
171 163 163 166 166 163 158 152 146 143 139 143 146 155 161 165 157 147 140 131 142 139 133 331 306 340 44 71 90 151 270 293 313 328 330 332 335 333 323 299 227 206 235
157 161 165 165 165 158 150 149 147 144 144 151 150 156 190 195 173 166 159 155 154 153 186 220 259 303 336 353 354 327 333 359 357 347 340 329 325 319 311 304 283 256 237
158 162 161 158 157 153 155 155 150 151 155 165 166 179 198 208 210 192 183 177 171 167 203 219 243 278 309 326 325 329 341 357 344 328 308 296 288 290 305 312 309 301 293
162 162 159 157 156 155 157 161 162 169 171 175 181 188 191 197 212 210 200 195 191 189 209 250 263 293 298 300 315 324 314 267 250 259 275 281 295 310 310 304 305 319 322
161 162 162 162 163 164 168 177 178 191 187 182 190 184 180 204 218 201 185 193 192 197 165 76 11 333 322 316 311 305 302 309 290 275 278 292 301 305 300 302 298 309 305
160 163 164 162 163 164 161 163 199 190 195 194 187 181 199 206 199 198 203 203 200 184 149 176 229 239 250 262 274 286 286 276 266 263 268 273 283 289 295 300 295 294 295
165 166 164 166 167 168 168 170 177 211 205 201 200 197 199 199 198 197 200 200 200 175 170 212 227 235 243 249 250 252 262 267 263 260 264 270 274 281 286 292 295 294 289
163 167 166 170 171 174 177 179 177 176 188 225 228 212 205 202 200 199 193 170 190 193 204 220 231 236 238 240 244 249 260 273 268 263 264 268 269 275 283 286 287 286 287
162 165 166 165 167 169 169 170 174 180 185 192 198 224 210 201 198 198 177 175 201 217 222 230 233 233 234 236 240 243 247 254 259 258 262 264 266 269 276 280 282 287 288
165 168 162 161 161 163 165 171 178 184 189 195 205 209 179 157 181 202 200 204 213 223 224 227 232 231 232 234 236 238 246 251 258 256 259 262 264 261 269 277 281 284 283
158 164 163 162 170 174 175 181 185 185 193 203 217 207 180 182 200 205 208 213 219 225 225 224 228 232 232 230 229 233 238 248 250 252 255 259 262 265 267 270 275 279 283
152 157 163 168 170 172 176 179 180 185 193 200 213 204 189 186 201 209 215 221 222 223 219 214 223 229 227 225 224 228 236 245 250 252 256 261 263 265 268 271 276 280 282
143 147 152 158 162 168 171 174 179 185 192 197 195 192 189 199 208 213 219 223 221 223 220 213 220 233 234 228 223 219 226 235 238 238 248 260 266 269 271 274 278 282 283
144 149 153 153 154 163 172 179 182 184 186 190 193 195 198 202 207 212 215 216 214 219 217 214 218 225 230 232 231 228 229 234 236 239 241 251 262 269 272 275 277 278 280
140 145 150 157 163 169 171 173 177 181 183 188 192 195 197 200 206 213 216 217 217 223 228 226 226 229 235 237 235 234 237 240 243 243 243 249 261 269 274 276 277 281 281
139 147 154 156 161 166 168 173 179 179 183 187 189 192 195 202 210 216 218 219 224 230 234 234 232 233 238 239 240 242 247 250 251 252 250 251 260 268 274 276 278 279 282